User: anonymous   Login
Location: Unspecified
(0.0000°N, 0.0000°E)
Time: 12:39:59
(UTC+00:00)
Language:

Meteosat 3 - Orbit

View from above orbital plane
View from above orbital plane
View from above satellite
View from above satellite

Ground track
Ground track

The orbit data is extracted from the following two-line orbital elements,

1 19215U 88051A   18169.60075685 -.00000092 +00000-0 +00000-0 0  9994
2 19215 016.0904 005.1535 0006560 312.1147 052.5516 00.96946870095091
Epoch (UTC): 18 June 2018 14:25:05
Eccentricity: 0.0006560
inclination: 16.0904°
perigee height: 36716 km
apogee height: 36773 km
right ascension of ascending node: 5.1535°
argument of perigee: 312.1147°
revolutions per day: 0.96946870
mean anomaly at epoch: 52.5516°
orbit number at epoch: 9509

The dashed part of the orbit path shows where the satellite is in the earth's shadow,  

DLR